Other Public Products
Issued by NWS Grand Forks, ND

Home | Current Version | Previous Version | Graphics & Text | Print | Product List | Glossary On
Versions: 1 2 3 4 5 6 7 8 9 10 11 12 13 14 15 16 17 18 19 20 21 22 23 24 25 26 27 28 29 30 31 32 33 34 35 36 37 38 39 40 41 42 43 44 45 46 47 48 49 50
000
FPUS83 KFGF 272231
OPUFGF
PRAIRIE TO PINES WEATHER ROUNDUP
NATIONAL WEATHER SERVICE EASTERN NORTH DAKOTA/GRAND FORKS ND
500 PM CDT SAT MAY 27 2017

 **SATELLITE DATA USED TO AUGMENT SKY COVER AT AUTOMATED STATIONS**
 *****  WEATHER ACROSS EASTERN NORTH DAKOTA  *****

CITY           SKY/WX    TMP DP  RH WIND       PRES   REMARKS
GRAND FORKS    FAIR      78  40  25 SW14      29.70F
GRAND FORKS AF FAIR      75  39  27 W13G20    29.71F
GRAND CITY NWS NOT AVBL
BUXTON           N/A     65  45  48 SW10G45     N/A
DEVILS LAKE    FAIR      69  40  34 W15       29.73S
FARGO          FAIR      78  38  23 SW17G23   29.73F
WAHPETON ARPT  FAIR      72  36  26 S13       29.77F
$$

 *****  WEATHER ACROSS CENTRAL AND WESTERN NORTH DAKOTA  *****

CITY           SKY/WX    TMP DP  RH WIND       PRES   REMARKS
JAMESTOWN      FAIR      74  41  30 W14       29.76F
BISMARCK       FAIR      76  36  23 W18G24    29.79F
MINOT          LGT RAIN  53  49  86 NW21G30   29.83R
MINOT AFB      FAIR      54  49  83 NW7       29.80F
GARRISON         N/A     54  50  86 N22G31    29.85R
WILLISTON      FAIR      69  45  41 NE12      29.84S
DICKINSON      FAIR      72  32  23 W17G32    29.83S
HETTINGER      CLOUDY    66  40  38 NW18G32   29.91R
$$

 *****  OTHER OBSERVATIONS NORTHEAST NORTH DAKOTA  *****

CITY           SKY/WX    TMP DP  RH WIND       PRES   REMARKS
WALHALLA       NOT AVBL
LANGDON        MOCLDY    63  48  59 NW10      29.73F
CAVALIER       FAIR      72  41  33 NW7       29.69F
GRAFTON        FAIR      68  43  40 W12G26    29.72F
CANDO          NOT AVBL
FORT TOTTEN      N/A     70  40  33 W8        29.95S
ROLLA          FAIR      57  41  54 NW31G43   29.78R
RUGBY          NOT AVBL
 ***** THE ABOVE OBSERVATIONS ARE NON NWS ARE NOT QUALITY
        CONTROLLED AND MAY MIS-REPORT RAIN FOR SNOW...
$$

 *****  OTHER OBSERVATIONS SOUTHEAST NORTH DAKOTA *****

CITY           SKY/WX    TMP DP  RH WIND       PRES   REMARKS
COOPERSTOWN    FAIR      70  37  30 W17G24    29.75F
VALLEY CITY    FAIR      72  41  33 W16G23    29.77F
OAKES          NOT AVBL
GWINNER        CLEAR     75  37  25 MISG      29.78S
SHEYENNE NWR     N/A     78  38  23 W14       29.95S
BUFFALO          N/A     75  35  22 W15         N/A
WYNDMERE         N/A     75  36  23 SW16        N/A
 ***** THE ABOVE OBSERVATIONS ARE NON NWS ARE NOT QUALITY
       CONTROLLED AND MAY MIS-REPORT RAIN FOR SNOW...
$$

  *****  WEATHER ACROSS NORTHERN MINNESOTA  *****

CITY           SKY/WX    TMP DP  RH WIND       PRES   REMARKS
FLAG ISLAND    FAIR      64  43  45 N9        29.69F
WARROAD        FAIR      73  43  33 W7G17     29.70F
ROSEAU         FAIR      72  39  30 SW9       29.70F
HALLOCK        LGT RAIN  61  48  63 S16       29.72R
THF RVR FALLS  PTSUNNY   66  45  46 S10       29.75S
HALSTAD          N/A     73  39  29 NW18        N/A
FOSSTON        FAIR      73  36  25 W8        29.75F
BAUDETTE       LGT RAIN  71  42  35 SW9       29.72F
WASKISH        PTSUNNY   72  45  37 SW8       29.74F
CROOKSTON      FAIR      72  45  37 SW9       29.73F
$$
  *****  WEATHER ACROSS CENTRAL AND WEST MINNESOTA  *****

CITY           SKY/WX    TMP DP  RH WIND       PRES   REMARKS
BEMIDJI        FAIR      74  37  25 W10G20    29.75F
PARK RAPIDS    PTSUNNY   73  37  27 W16G22    29.77F
WADENA         FAIR      73  43  33 SW16      29.79F
DETROIT LAKES  LGT RAIN  68  45  42 CALM      29.79F
MOORHEAD       FAIR      79  32  18 W21G29    29.74F
FERGUS FALLS   FAIR      72  41  33 W15       29.76F
ELBOW LAKE     FAIR      68  44  42 S10       29.81F
MORRIS MN      FAIR      73  43  33 SW13      29.82F
STAPLES        FAIR      70  39  32 S9        29.81F
WHEATON        FAIR      72  36  26 SW14G26   29.82F
$$
  *****  WEATHER ELSEWHERE ACROSS MINNESOTA  *****

CITY           SKY/WX    TMP DP  RH WIND       PRES   REMARKS
DULUTH         FAIR      72  40  31 NW10      29.80F
INTRNTL FALLS  FAIR      73  37  27 W17G25    29.74R
ELY            FAIR      72  37  28 SW9G17    29.77F
CLOQUET        FAIR      73  36  25 W13G18    29.80F
BRAINERD       FAIR      72  41  32 SW17      29.82F
HIBBING        FAIR      73  39  29 SW9G20    29.78F
ALEXANDRIA     PTSUNNY   71  42  35 SW16      29.84F
SAINT CLOUD    PTSUNNY   70  42  36 W10       29.84F
MINNEAPOLIS    PTSUNNY   69  48  47 SW7       29.86F
$$

  *****  WEATHER ACROSS SOUTH DAKOTA  *****

CITY           SKY/WX    TMP DP  RH WIND       PRES   REMARKS
SIOUX FALLS    PTSUNNY   67  52  58 NW12      29.91F
BROOKINGS      PTSUNNY   67  47  48 W14       29.90S
WATERTOWN      FAIR      70  42  36 SW13      29.87F
HURON          FAIR      72  45  37 SW12G18   29.88F
SISSETON         N/A     72  42  34 SW13G18   29.81F
ABERDEEN       FAIR      79  33  19 W18G24    29.81F
MITCHELL       FAIR      68  47  46 W9        29.91F
PIERRE         FAIR      76  34  21 NW14G20   29.87F
MOBRIDGE       FAIR      74  40  29 W9        29.83F
RAPID CITY     FAIR      72  35  25 NW16G29   29.99F
$$

  *****  SOME WEATHER IN NEARBY STATES *****

CITY           SKY/WX    TMP DP  RH WIND       PRES   REMARKS
GLASGOW MT     PTSUNNY   76  35  22 NW22G31   29.92R
GREAT FALLS MT FAIR      75  34  22 W13       30.09S
CHEYENNE WY    FAIR      54  37  52 N20G32    30.17R
SCOTTSBLUFF NE FAIR      65  40  39 W13       30.09S
OMAHA NE       PTSUNNY   71  56  58 E12       29.89R
DES MOINES IA  PTSUNNY   68  58  70 N13       29.85S
DAVENPORT IA   FAIR      72  60  66 SE7       29.84F
CHICAGO IL     PTSUNNY   73  56  54 E12       29.86R
EAU CLAIRE WI  FAIR      69  46  43 W10       29.85F
LA CROSSE WI   FAIR      72  51  47 NW9       29.84F
$$

  *****  SOME NATIONAL WEATHER *****

CITY           SKY/WX    TMP DP  RH WIND       PRES   REMARKS
LA GUARDIA NY  CLOUDY    70  55  59 S7        29.86S
RALEIGH NC     PTSUNNY   83  65  54 SW10      29.86F
ATLANTA GA     PTSUNNY   80  66  62 W14G25    29.99S
NEW ORLEANS LA FAIR      87  75  67 S14       29.99F HX  96
OKLAHOMA CITY  PTSUNNY   94  66  39 SW16      29.73S HX  97
ALBUQUERQUE NM FAIR      81  10   7 W9G29     30.02F
SALT LAKE CITY FAIR      69  36  29 W7G21     30.21F
LOS ANGELES CA FAIR      67  53  61 W17       30.05F
BOISE ID       FAIR      76  36  23 N6        30.16F
SEATTLE WA     FAIR      83  43  24 N10       30.08S
$$

*** WEATHER ACROSS MANITOBA...SASKATCHEWAN AND ONTARIO ***
                ***ONTARIO***

CITY           SKY/WX    TMP DP  RH WIND       PRES   REMARKS
GERALDTON      CLOUDY    70  55  60 S16       29.73F
THUNDER BAY    PTSUNNY   68  48  49 NE5       29.75F
SIOUX LOOKOUT  PTSUNNY   70  41  35 SW6       29.70F
TORONTO        PTSUNNY   63  55  77 SE8       29.91R
BIG TROUT LK     N/A     64  46  52 SW6       29.63
PICKLE LAKE    PTSUNNY   70  45  40 W9        29.68R
DRYDEN         CLOUDY    68  37  32 W15G21    29.71S
KENORA         PTSUNNY   61  50  67 N5        29.72R
$$
                *** MANITOBA***

CITY           SKY/WX    TMP DP  RH WIND       PRES   REMARKS
BRANDON        LGT RAIN  57  45  62 NW21      29.76R
DAUPHIN        PTSUNNY   61  48  63 NW15G22   29.70R
ISLAND LAKE    PTSUNNY   59  50  72 SE8       29.63S
PILOT MOUND      N/A     66  39  37 NW12G17     N/A
THE PAS        CLOUDY    48  45  87 NW13      29.72R
THOMPSON       CLOUDY    52  46  82 N12       29.66R
WINNIPEG       PTSUNNY   70  41  35 NW16G25   29.67F
LYNN LAKE      CLOUDY    45  41  87 N12       29.76R
CHURCHILL      CLOUDY    37  36  93 E9        29.75R
GILLAM         LGT RAIN  54  50  87 N6        29.63R
$$
                ***SASKATCHEWAN***

CITY           SKY/WX    TMP DP  RH WIND       PRES   REMARKS
ESTEVAN        MOSUNNY   63  48  59 SW7       29.80S
KINDERSLEY     MOSUNNY   75  37  25 N18G29    29.89S
LLOYDMINSTER   MOSUNNY   72  39  30 N18G24    29.93R
PRINCE ALBERT  PTSUNNY   64  41  42 N20G28    29.82R
REGINA         MOSUNNY   70  36  28 N24G37    29.81R
YORKTON          N/A     64  39  39 NW17G25   29.75R



USA.gov is the U.S. government's official web portal to all federal, state and local government web resources and services.